Tracking 29892 objects as of 21-Nov-2024
HD Live streaming from Space Station
objects crossing your sky now

OBJECT R

Track OBJECT R now!
10-day predictions


NORAD ID: 57019
Int'l Code: 2023-085R
Perigee: 493.6 km
Apogee: 503.8 km
Inclination: 97.5 °
Period: 94.4 minutes
Semi major axis: 6869 km
RCS: Unknown
Launch date: June 15, 2023
Source: People's Republic of China (PRC)
Launch site: Taiyaun Space Center, China (TSC)
Your satellite tracking list
Your tracking list is empty




NASA's NSSDC Master Catalog

Two Line Element Set (TLE):
1 57019U 23085R   24325.93491686  .00029407  00000-0  11855-2 0  9996
2 57019  97.4698  68.5465 0007425 252.1514 107.8914 15.24757995 79469
Source of the keplerian elements: AFSPC